DW6416 Weather Reports


Display with metric or nautical units.
time (UTC)temp
F
wind
direction
speed
MPH
gust
MPH
rain 1hr
in
rain 24hr
in
rain mn
in
humidity
%
barometer
mb
20180119035114 22 188 5.0 10.0 0.00 0.00 0.00 73 1020.3
20180119034611 22 222 0.0 9.0 0.00 0.00 0.00 72 1020.2
20180119034108 22 199 4.0 12.0 0.00 0.00 0.00 73 1020.2
20180119033623 22 213 5.0 12.0 0.00 0.00 0.00 72 1020.3
20180119033117 22 202 3.0 11.0 0.00 0.00 0.00 73 1020.4
20180119032616 23 187 1.0 11.0 0.00 0.00 0.00 72 1020.4
20180119032115 23 181 5.0 9.0 0.00 0.00 0.00 72 1020.5
20180119031612 23 204 0.0 8.0 0.00 0.00 0.00 72 1020.6
20180119031108 23 222 0.0 13.0 0.00 0.00 0.00 72 1020.7
20180119030622 23 225 1.0 13.0 0.00 0.00 0.00 72 1020.7
20180119030111 23 235 3.0 10.0 0.00 0.00 0.00 72 1020.6
20180119025607 23 241 5.0 12.0 0.00 0.00 0.00 72 1020.5
20180119025105 23 225 5.0 12.0 0.00 0.00 0.00 72 1020.4
20180119024621 23 191 3.0 10.0 0.00 0.00 0.00 72 1020.5
20180119023617 23 202 5.0 13.0 0.00 0.00 0.00 72 1020.4
20180119023113 24 202 5.0 12.0 0.00 0.00 0.00 72 1020.5
20180119022606 24 184 4.0 13.0 0.00 0.00 0.00 72 1020.4
20180119022122 24 194 5.0 13.0 0.00 0.00 0.00 72 1020.4
20180119021621 24 211 6.0 13.0 0.00 0.00 0.00 72 1020.4
20180119021117 24 219 4.0 14.0 0.00 0.00 0.00 72 1020.5
20180119020614 24 225 5.0 14.0 0.00 0.00 0.00 72 1020.5
20180119020123 24 203 5.0 13.0 0.00 0.00 0.00 72 1020.5
20180119015617 24 210 5.0 10.0 0.00 0.00 0.00 72 1020.5
20180119015122 24 201 1.0 8.0 0.00 0.00 0.00 72 1020.7
20180119014619 24 177 4.0 9.0 0.00 0.00 0.00 72 1020.7
20180119014116 24 201 2.0 8.0 0.00 0.00 0.00 72 1020.8
20180119013612 24 217 4.0 13.0 0.00 0.00 0.00 72 1020.8
20180119012608 24 196 5.0 11.0 0.00 0.00 0.00 72 1020.8
20180119012122 24 212 4.0 10.0 0.00 0.00 0.00 72 1020.7
20180119011620 24 205 3.0 10.0 0.00 0.00 0.00 72 1020.9
20180119011117 24 154 2.0 9.0 0.00 0.00 0.00 72 1020.9
20180119010615 24 234 4.0 10.0 0.00 0.00 0.00 72 1020.9
20180119005622 24 166 2.0 12.0 0.00 0.00 0.00 73 1020.9
20180119005121 24 143 0.0 10.0 0.00 0.00 0.00 72 1021.0
20180119004620 24 193 2.0 10.0 0.00 0.00 0.00 72 1021.0
20180119004118 24 227 0.0 7.0 0.00 0.00 0.00 72 1021.2
20180119003616 24 252 0.0 8.0 0.00 0.00 0.00 73 1021.1
20180119003114 24 202 4.0 9.0 0.00 0.00 0.00 73 1021.2
20180119002613 24 199 3.0 13.0 0.00 0.00 0.00 73 1021.2
20180119002110 24 195 0.0 13.0 0.00 0.00 0.00 73 1021.3
20180119001609 24 206 0.0 8.0 0.00 0.00 0.00 73 1021.3
20180119001106 24 205 0.0 8.0 0.00 0.00 0.00 73 1021.3
20180119000603 24 214 2.0 9.0 0.00 0.00 0.00 73 1021.3
20180119000116 24 192 0.0 1.0 0.00 0.00 0.00 73 1021.3
20180118235113 24 200 0.0 1.0 0.00 0.00 0.00 73 1021.2
20180118234609 24 190 0.0 1.0 0.00 0.00 0.00 73 1021.1
20180118234107 24 225 0.0 1.0 0.00 0.00 0.00 73 1021.1
20180118233623 24 198 0.0 1.0 0.00 0.00 0.00 73 1021.1
20180118233121 24 233 0.0 5.0 0.00 0.00 0.00 72 1021.0
20180118232619 24 222 1.0 5.0 0.00 0.00 0.00 73 1020.9
20180118232115 24 194 0.0 8.0 0.00 0.00 0.00 73 1020.9
20180118231614 24 181 1.0 8.0 0.00 0.00 0.00 73 1020.9
20180118231110 24 214 0.0 8.0 0.00 0.00 0.00 72 1020.9
20180118230613 24 191 3.0 8.0 0.00 0.00 0.00 73 1020.9
20180118230103 24 217 0.0 1.0 0.00 0.00 0.00 72 1020.9
20180118225623 24 194 0.0 5.0 0.00 0.00 0.00 72 1020.9
20180118225120 24 187 0.0 7.0 0.00 0.00 0.00 72 1020.9
20180118224116 24 236 0.0 1.0 0.00 0.00 0.00 71 1021.0
20180118223615 24 213 0.0 9.0 0.00 0.00 0.00 71 1020.9
20180118223112 24 205 3.0 9.0 0.00 0.00 0.00 71 1020.9
20180118222607 24 173 0.0 1.0 0.00 0.00 0.00 71 1020.9
20180118222105 25 196 0.0 1.0 0.00 0.00 0.00 70 1020.9
20180118221622 25 191 0.0 1.0 0.00 0.00 0.00 70 1021.0
20180118221117 25 206 0.0 11.0 0.00 0.00 0.00 70 1021.0
20180118220105 25 224 0.0 7.0 0.00 0.00 0.00 70 1021.0
20180118215624 25 181 0.0 7.0 0.00 0.00 0.00 70 1020.9
20180118215121 25 199 0.0 14.0 0.00 0.00 0.00 70 1020.9
20180118214620 25 182 2.0 14.0 0.00 0.00 0.00 70 1020.9
20180118213617 25 225 2.0 11.0 0.00 0.00 0.00 70 1021.0
20180118213118 25 200 4.0 9.0 0.00 0.00 0.00 70 1021.1
20180118212112 25 189 1.0 12.0 0.00 0.00 0.00 69 1021.2
20180118211610 25 223 0.0 10.0 0.00 0.00 0.00 69 1021.3
20180118211108 25 225 1.0 13.0 0.00 0.00 0.00 69 1021.3
20180118210604 25 237 3.0 13.0 0.00 0.00 0.00 69 1021.3
20180118210115 25 235 3.0 12.0 0.00 0.00 0.00 70 1021.4
20180118205612 25 233 0.0 7.0 0.00 0.00 0.00 70 1021.4
20180118205122 25 231 0.0 7.0 0.00 0.00 0.00 69 1021.4
20180118204614 25 197 0.0 12.0 0.00 0.00 0.00 69 1021.5
20180118204123 25 233 5.0 12.0 0.00 0.00 0.00 69 1021.5
20180118203120 25 239 4.0 11.0 0.00 0.00 0.00 69 1021.4
20180118202617 25 196 0.0 11.0 0.00 0.00 0.00 69 1021.5
20180118202114 25 253 4.0 11.0 0.00 0.00 0.00 69 1021.7
20180118201613 25 256 0.0 8.0 0.00 0.00 0.00 69 1021.5
20180118201109 25 201 2.0 8.0 0.00 0.00 0.00 68 1021.4
20180118200609 25 225 0.0 1.0 0.00 0.00 0.00 69 1021.3
20180118200116 25 238 0.0 4.0 0.00 0.00 0.00 69 1021.2
20180118195617 24 212 0.0 11.0 0.00 0.00 0.00 69 1021.2
20180118195114 24 218 2.0 12.0 0.00 0.00 0.00 69 1021.0
20180118194610 24 236 5.0 12.0 0.00 0.00 0.00 69 1021.1
20180118194109 24 236 0.0 10.0 0.00 0.00 0.00 70 1021.0
20180118193606 24 251 1.0 12.0 0.00 0.00 0.00 69 1021.1
20180118192622 24 247 0.0 13.0 0.00 0.00 0.00 69 1020.9
20180118192119 24 243 1.0 14.0 0.00 0.00 0.00 69 1021.0
20180118191616 24 202 6.0 14.0 0.00 0.00 0.00 68 1020.8
20180118191114 24 171 2.0 14.0 0.00 0.00 0.00 69 1020.7
20180118190612 24 182 3.0 14.0 0.00 0.00 0.00 67 1020.8
20180118190122 24 191 7.0 13.0 0.00 0.00 0.00 67 1020.8
20180118185619 25 242 2.0 12.0 0.00 0.00 0.00 66 1020.9
20180118184615 25 196 4.0 15.0 0.00 0.00 0.00 65 1021.2
20180118184113 25 236 5.0 15.0 0.00 0.00 0.00 66 1021.2
20180118183609 25 220 5.0 15.0 0.00 0.00 0.00 66 1021.4
20180118183111 25 249 4.0 13.0 0.00 0.00 0.00 66 1021.4
20180118182608 25 217 2.0 13.0 0.00 0.00 0.00 66 1021.5
20180118181603 24 236 2.0 15.0 0.00 0.00 0.00 67 1021.7
20180118180620 24 210 3.0 10.0 0.00 0.00 0.00 67 1021.8
20180118180111 23 180 3.0 10.0 0.00 0.00 0.00 68 1021.7
20180118175609 23 222 4.0 11.0 0.00 0.00 0.00 69 1021.8
20180118175106 23 191 2.0 11.0 0.00 0.00 0.00 68 1021.9
20180118174623 23 160 1.0 10.0 0.00 0.00 0.00 68 1021.9
20180118174120 23 190 4.0 10.0 0.00 0.00 0.00 68 1022.1
20180118173619 23 219 3.0 12.0 0.00 0.00 0.00 67 1022.2
20180118173116 23 243 6.0 11.0 0.00 0.00 0.00 68 1022.4
20180118172613 23 230 2.0 10.0 0.00 0.00 0.00 68 1022.4
20180118172110 22 188 1.0 12.0 0.00 0.00 0.00 68 1022.5
20180118171607 22 208 4.0 12.0 0.00 0.00 0.00 68 1022.6
20180118171124 22 230 5.0 12.0 0.00 0.00 0.00 68 1022.6
20180118170620 22 247 4.0 12.0 0.00 0.00 0.00 67 1022.8
20180118170115 22 227 2.0 11.0 0.00 0.00 0.00 68 1022.8
20180118165612 22 209 5.0 14.0 0.00 0.00 0.00 68 1022.9
20180118165111 22 218 5.0 17.0 0.00 0.00 0.00 68 1022.9
20180118164606 22 193 6.0 13.0 0.00 0.00 0.00 69 1022.9
20180118164125 22 244 4.0 13.0 0.00 0.00 0.00 69 1022.9
20180118163622 22 244 0.0 13.0 0.00 0.00 0.00 69 1022.9
20180118163118 21 256 7.0 13.0 0.00 0.00 0.00 69 1022.9
20180118162615 21 256 6.0 14.0 0.00 0.00 0.00 69 1023.0
20180118162112 21 258 5.0 14.0 0.00 0.00 0.00 68 1023.0
20180118161609 21 256 5.0 16.0 0.00 0.00 0.00 69 1023.1
20180118161105 21 247 7.0 16.0 0.00 0.00 0.00 69 1023.2
20180118160624 21 210 6.0 12.0 0.00 0.00 0.00 69 1023.2
20180118160114 20 256 4.0 13.0 0.00 0.00 0.00 70 1023.3
20180118155611 20 239 4.0 13.0 0.00 0.00 0.00 70 1023.4
20180118155108 20 225 6.0 11.0 0.00 0.00 0.00 70 1023.5
20180118154608 20 229 5.0 11.0 0.00 0.00 0.00 70 1023.5
20180118153606 20 279 5.0 14.0 0.00 0.00 0.00 70 1023.6
20180118153123 20 253 6.0 11.0 0.00 0.00 0.00 71 1023.6
20180118152618 19 252 7.0 12.0 0.00 0.00 0.00 71 1023.7
20180118152112 19 256 7.0 12.0 0.00 0.00 0.00 71 1023.8
20180118151610 19 258 6.0 14.0 0.00 0.00 0.00 71 1023.9
20180118150607 19 249 2.0 13.0 0.00 0.00 0.00 71 1023.9
20180118145615 19 210 5.0 15.0 0.00 0.00 0.00 71 1023.9
20180118145116 19 222 5.0 12.0 0.00 0.00 0.00 71 1024.0
20180118144110 18 264 6.0 11.0 0.00 0.00 0.00 72 1024.2
20180118143608 18 220 4.0 10.0 0.00 0.00 0.00 73 1024.3
20180118143123 18 218 5.0 12.0 0.00 0.00 0.00 73 1024.3
20180118142619 18 234 6.0 12.0 0.00 0.00 0.00 73 1024.4
20180118142115 18 243 6.0 11.0 0.00 0.00 0.00 73 1024.2
20180118141613 17 241 6.0 10.0 0.00 0.00 0.00 75 1024.1
20180118141115 17 218 2.0 11.0 0.00 0.00 0.00 75 1024.0
20180118140612 17 225 5.0 11.0 0.00 0.00 0.00 76 1023.9
20180118140119 16 246 3.0 9.0 0.00 0.00 0.00 76 1023.9
20180118135616 16 229 5.0 10.0 0.00 0.00 0.00 77 1024.0
20180118135113 16 228 2.0 9.0 0.00 0.00 0.00 78 1024.0
20180118134609 15 208 2.0 10.0 0.00 0.00 0.00 79 1024.0
20180118134126 14 233 3.0 10.0 0.00 0.00 0.00 80 1024.0
20180118133621 14 239 4.0 9.0 0.00 0.00 0.00 81 1024.0
20180118133116 13 253 5.0 12.0 0.00 0.00 0.00 82 1024.0
20180118132611 13 244 4.0 8.0 0.00 0.00 0.00 83 1024.0
20180118131622 12 224 0.0 6.0 0.00 0.00 0.00 83 1023.8
20180118131118 12 270 0.0 8.0 0.00 0.00 0.00 83 1023.8
20180118130612 11 239 3.0 10.0 0.00 0.00 0.00 84 1023.8
20180118130120 11 227 3.0 8.0 0.00 0.00 0.00 83 1023.7
20180118125614 11 238 1.0 9.0 0.00 0.00 0.00 83 1023.7
20180118125109 11 253 4.0 9.0 0.00 0.00 0.00 83 1023.7
20180118124627 11 235 0.0 11.0 0.00 0.00 0.00 83 1023.6
20180118124123 11 231 4.0 11.0 0.00 0.00 0.00 83 1023.6
20180118123622 11 251 4.0 12.0 0.00 0.00 0.00 84 1023.5
20180118123117 11 226 3.0 12.0 0.00 0.00 0.00 84 1023.7
20180118122612 11 214 4.0 9.0 0.00 0.00 0.00 83 1023.4
20180118122125 11 202 3.0 11.0 0.00 0.00 0.00 83 1023.3
20180118121620 11 223 2.0 13.0 0.00 0.00 0.00 83 1023.3
20180118121114 11 243 4.0 10.0 0.00 0.00 0.00 83 1023.4
20180118120626 11 228 3.0 10.0 0.00 0.00 0.00 83 1023.6
20180118120114 11 220 1.0 9.0 0.00 0.00 0.00 83 1023.4
20180118115608 11 219 1.0 9.0 0.00 0.00 0.00 83 1023.4
20180118115124 11 212 3.0 9.0 0.00 0.00 0.00 83 1023.5
20180118114111 11 226 5.0 16.0 0.00 0.00 0.00 83 1023.6
20180118113627 11 212 4.0 9.0 0.00 0.00 0.00 83 1023.6
20180118113122 11 214 1.0 10.0 0.00 0.00 0.00 83 1023.6
20180118112619 11 231 2.0 14.0 0.00 0.00 0.00 83 1023.8
20180118112113 11 226 4.0 14.0 0.00 0.00 0.00 83 1023.8
20180118111608 11 213 4.0 15.0 0.00 0.00 0.00 84 1023.9
20180118111123 11 225 1.0 11.0 0.00 0.00 0.00 84 1023.9
20180118110617 11 218 4.0 11.0 0.00 0.00 0.00 84 1023.9
20180118105621 10 212 1.0 5.0 0.00 0.00 0.00 84 1024.0
20180118105116 10 218 0.0 8.0 0.00 0.00 0.00 84 1024.1
20180118104615 10 237 2.0 8.0 0.00 0.00 0.00 84 1024.1
20180118104109 10 208 0.0 11.0 0.00 0.00 0.00 84 1024.2
20180118103626 10 227 1.0 11.0 0.00 0.00 0.00 84 1024.2
20180118103121 10 210 0.0 8.0 0.00 0.00 0.00 84 1024.3
20180118102617 10 215 0.0 8.0 0.00 0.00 0.00 84 1024.3
20180118102112 10 205 2.0 8.0 0.00 0.00 0.00 84 1024.3
20180118101125 10 233 1.0 6.0 0.00 0.00 0.00 84 1024.4
20180118100618 10 231 0.0 1.0 0.00 0.00 0.00 84 1024.5
20180118100126 10 230 0.0 8.0 0.00 0.00 0.00 84 1024.6
20180118095620 10 222 2.0 8.0 0.00 0.00 0.00 84 1024.5
20180118095115 10 206 0.0 1.0 0.00 0.00 0.00 84 1024.6
20180118094610 10 227 0.0 7.0 0.00 0.00 0.00 85 1024.6
20180118094126 10 236 4.0 7.0 0.00 0.00 0.00 85 1024.7
20180118093621 10 210 0.0 8.0 0.00 0.00 0.00 85 1024.7
20180118092116 10 203 1.0 9.0 0.00 0.00 0.00 85 1024.9
20180118091109 10 230 2.0 6.0 0.00 0.00 0.00 85 1025.2
20180118090128 10 227 0.0 1.0 0.00 0.00 0.00 85 1025.2
20180118085120 10 226 0.0 5.0 0.00 0.00 0.00 86 1025.2
20180118084112 10 237 0.0 1.0 0.00 0.00 0.00 86 1025.3
20180118083611 10 222 0.0 1.0 0.00 0.00 0.00 86 1025.4
20180118083124 10 218 0.0 1.0 0.00 0.00 0.00 86 1025.3
20180118082115 10 225 0.0 5.0 0.00 0.00 0.00 86 1025.5
20180118081614 10 222 1.0 5.0 0.00 0.00 0.00 86 1025.5
20180118081109 10 234 0.0 1.0 0.00 0.00 0.00 87 1025.5
20180118080625 10 241 0.0 7.0 0.00 0.00 0.00 87 1025.6
20180118080111 10 233 0.0 6.0 0.00 0.00 0.00 87 1025.6
20180118075626 10 228 0.0 6.0 0.00 0.00 0.00 87 1025.6
20180118075123 10 212 1.0 6.0 0.00 0.00 0.00 86 1025.6
20180118074112 10 193 0.0 1.0 0.00 0.00 0.00 86 1025.6
20180118073127 10 218 0.0 4.0 0.00 0.00 0.00 86 1025.5
20180118072621 10 220 0.0 5.0 0.00 0.00 0.00 86 1025.5
20180118072116 10 220 0.0 1.0 0.00 0.00 0.00 86 1025.5
20180118071612 10 228 0.0 1.0 0.00 0.00 0.00 86 1025.5
20180118071127 10 216 0.0 1.0 0.00 0.00 0.00 86 1025.6
20180118070621 10 218 0.0 1.0 0.00 0.00 0.00 86 1025.5
20180118070129 10 233 0.0 7.0 0.00 0.00 0.00 86 1025.5
20180118065624 10 225 0.0 8.0 0.00 0.00 0.00 86 1025.5
20180118065119 10 254 1.0 8.0 0.00 0.00 0.00 86 1025.5
20180118064617 10 252 0.0 9.0 0.00 0.00 0.00 86 1025.5
20180118064112 10 197 2.0 9.0 0.00 0.00 0.00 86 1025.5
20180118063627 10 241 3.0 7.0 0.00 0.00 0.00 86 1025.5
20180118063122 10 228 0.0 7.0 0.00 0.00 0.00 86 1025.7
20180118062617 10 187 0.0 8.0 0.00 0.00 0.00 86 1025.7
20180118062112 10 221 2.0 8.0 0.00 0.00 0.00 87 1025.7
20180118061124 10 228 3.0 11.0 0.00 0.00 0.00 87 1026.0
20180118060620 10 213 0.0 10.0 0.00 0.00 0.00 86 1026.1
20180118060129 10 224 0.0 7.0 0.00 0.00 0.00 86 1026.1
20180118055623 10 205 1.0 6.0 0.00 0.00 0.00 86 1026.2
20180118055118 10 241 0.0 7.0 0.00 0.00 0.00 86 1026.2
20180118054610 10 232 2.0 7.0 0.00 0.00 0.00 86 1026.4
20180118054125 10 220 1.0 7.0 0.00 0.00 0.00 86 1026.4
20180118053619 10 234 0.0 1.0 0.00 0.00 0.00 86 1026.6
20180118053114 10 228 0.0 2.0 0.00 0.00 0.00 86 1026.6
20180118052630 10 218 0.0 8.0 0.00 0.00 0.00 86 1026.7
20180118052124 10 245 2.0 8.0 0.00 0.00 0.00 86 1026.8
20180118051619 10 229 0.0 6.0 0.00 0.00 0.00 86 1026.9
20180118051117 10 238 1.0 6.0 0.00 0.00 0.00 87 1026.9
20180118050124 10 211 1.0 8.0 0.00 0.00 0.00 87 1027.1
20180118045617 10 239 3.0 7.0 0.00 0.00 0.00 87 1027.1
20180118045111 10 229 3.0 8.0 0.00 0.00 0.00 87 1027.1
20180118044628 11 237 2.0 7.0 0.00 0.00 0.00 87 1027.3
20180118044118 11 228 4.0 7.0 0.00 0.00 0.00 87 1027.3
20180118043632 10 235 0.0 6.0 0.00 0.00 0.00 88 1027.4
20180118042613 10 227 1.0 8.0 0.00 0.00 0.00 88 1027.5
20180118041620 10 254 2.0 7.0 0.00 0.00 0.00 89 1027.6
20180118040624 9 247 0.0 1.0 0.00 0.00 0.00 89 1027.6
20180118040129 9 233 0.0 1.0 0.00 0.00 0.00 89 1027.6
20180118035618 9 253 0.0 4.0 0.00 0.00 0.00 89 1027.6